Location: Sungai Igah
(2.7333°N, 114.2500°E)
Time: 11:22:34
(UTC+00:00)

Fermi - Pass Details

Date: 14 June 2021
Orbit: 523 x 540 km, 25.6° (Epoch: 04 August)

Event Time Altitude Azimuth Distance (km) Brightness Sun altitude
Exits shadow 20:52:05 57° 252° (WSW) 619 3.7 -19.7°
Maximum altitude 20:52:39 65° 208° (SSW) 575 3.6 -19.6°
Drops below altitude 10° 20:56:40 10° 125° (SE) 1,751 6.7 -18.7°
Sets 20:58:56 0° 122° (ESE) 2,637 7.8 -18.2°
